Location: Bushey
(51.6333°N, 0.3667°W)
Time: 19:19:52
(UTC+00:00)

COSMOS 2428 - Pass Details

Date: 03 March 2021
Orbit: 845 x 858 km, 70.9° (Epoch: 16 April)

Event Time Altitude Azimuth Distance (km) Brightness Sun altitude
Rises 19:18:04 0° 169° (SSE) 3,393 5.6 -15.1°
Reaches altitude 10° 19:20:54 10° 156° (SSE) 2,464 4.8 -15.6°
Enters shadow 19:24:46 25° 114° (ESE) 1,669 3.7 -16.1°
Exits shadow 19:32:03 - 40° (NE) 3,177 5.4 -17.3°
Sets 19:32:46 0° 38° (NE) 3,424 5.6 -17.4°
